Dewpoint
51 50 48 47 46 43 40 39 39 39 39 40 40 40 39 38 38 37 35 32 30 29
51 49 49 48 45 45 43 41 40 40 41 41 40 39 38 36 34 32 30 28 28 27
49 49 48 47 46 43 42 41 41 42 42 40 39 37 34 32 30 27 28 28 27 27
48 46 44 44 43 41 41 41 41 41 41 38 36 34 31 28 27 26 26 27 26 26
46 44 43 42 42 42 42 43 42 39 37 34 31 29 27 24 25 24 23 25 25 25
46 44 43 42 42 42 42 43 41 39 34 29 26 25 25 24 23 23 23 24 23 24
45 44 44 43 43 42 39 38 37 33 27 25 24 23 23 21 22 23 24 24 23 24
45 44 44 42 40 38 36 31 29 27 23 23 22 21 22 22 23 24 26 26 27 28
42 41 39 37 36 34 32 29 25 23 21 20 22 27 25 24 24 26 26 26 30 31
39 38 36 35 33 29 28 26 24 23 24 27 30 29 28 27 26 26 27 28 27 28
37 36 34 32 30 27 26 26 27 28 29 30 32 31 29 28 27 27 26 26 26 25
36 35 33 30 28 27 28 28 29 30 31 31 32 32 30 27 26 26 26 26 26 25
34 34 31 28 28 28 28 29 30 30 32 33 33 31 29 26 26 25 25 27 29 28
31 31 29 27 27 27 27 28 29 30 30 31 31 31 30 28 25 25 25 24 24 26
Wind_Speed
25 22 21 24 22 21 22 19 14 14 13 14 16 16 16 16 10 12 13 14 10 12
24 21 20 20 20 19 16 16 16 16 15 15 17 17 19 19 16 16 15 15 15 14
21 20 20 21 22 20 17 19 18 16 13 11 17 19 21 20 17 20 13 14 16 15
17 19 20 20 21 22 21 22 21 21 17 12 16 17 22 20 19 21 17 13 17 17
18 21 20 20 20 22 23 20 20 19 18 15 16 15 21 22 18 20 18 16 17 16
18 20 22 22 22 22 22 20 19 17 14 18 18 17 16 20 17 19 18 15 17 15
21 21 23 23 24 23 21 22 20 17 17 16 16 18 18 20 17 17 18 14 15 15
21 22 23 25 24 23 21 19 20 20 17 17 19 16 19 18 18 20 19 14 16 14
27 23 25 23 23 23 22 19 20 21 19 18 12 20 22 20 17 17 17 17 14 13
24 24 24 24 23 23 23 21 21 20 20 17 16 21 21 19 16 16 15 15 14 12
25 24 23 23 22 22 22 23 21 19 18 18 16 20 20 19 16 14 15 13 11 12
23 21 21 22 22 22 24 22 18 16 17 18 16 19 19 16 15 15 13 9 8 10
19 19 20 22 22 20 22 20 17 17 14 16 15 17 16 15 14 15 13 9 9 8
18 20 19 21 20 20 20 19 17 16 13 13 13 13 14 13 12 13 12 9 6 3
Wind_Direction
187 168 167 167 168 169 166 165 162 155 151 151 146 142 134 124 134 138 129 128 121 107
175 169 168 168 168 166 161 150 144 138 143 143 135 133 122 126 125 115 114 112 105 99
151 165 161 155 161 155 149 141 136 129 129 138 130 129 119 117 117 116 110 107 107 96
143 142 145 148 148 148 139 138 140 137 128 142 130 132 121 120 119 115 113 111 107 99
140 140 139 142 142 143 131 124 124 125 132 127 123 122 123 120 115 129 123 114 103 100
143 140 136 135 132 128 130 129 123 124 129 127 125 117 113 117 121 113 112 114 113 109
140 139 140 133 127 119 121 125 123 122 123 117 113 111 113 111 117 114 109 108 112 110
125 125 126 123 115 110 112 115 117 116 113 115 114 130 124 122 120 114 107 107 102 108
122 120 113 107 114 112 110 114 118 115 117 112 121 131 126 117 117 115 119 121 120 105
109 108 109 109 111 117 120 121 110 108 110 121 127 119 116 118 116 122 126 128 117 109
102 103 105 112 116 116 115 108 108 110 114 110 115 124 127 121 117 118 108 115 133 127
100 107 115 116 117 112 107 106 105 107 108 111 123 131 126 124 115 110 111 124 133 120
110 114 116 113 106 105 107 109 109 103 107 120 126 132 130 120 119 125 123 104 97 115
112 113 113 112 111 108 109 110 111 112 106 111 115 124 130 139 129 129 124 118 113 105